Location: Beeston
(52.7000°N, 0.8167°E)
Time: 11:20:46
(UTC+00:00)

SPOT 3 Rocket - Pass Details

Date: 15 May 2026
Orbit: 774 x 790 km, 98.5° (Epoch: 5 June)

Event Time Altitude Azimuth Distance (km) Brightness Sun altitude
Exits shadow 21:09:24 10° 165° (SSE) 2,311 5.4 -10.0°
Maximum altitude 21:14:30 85° 253° (WSW) 787 3.6 -10.5°
Drops below altitude 10° 21:19:41 10° 344° (NNW) 2,336 7.3 -10.9°
Sets 21:22:00 0° 345° (NNW) 3,267 8.2 -11.1°
